TimeCDT,TemperatureF,Dew PointF,Humidity,Sea Level PressureIn,VisibilityMPH,Wind Direction,Wind SpeedMPH,Gust SpeedMPH,PrecipitationIn,Events,Conditions,WindDirDegrees,DateUTC
12:12 AM,57.2,51.8,82,29.92,10.0,WNW,12.7,-,N/A,,Mostly Cloudy,290,2013-09-20 05:12:00
12:33 AM,57.2,51.8,82,29.92,10.0,WNW,11.5,17.3,N/A,,Scattered Clouds,290,2013-09-20 05:33:00
12:52 AM,57.2,50.0,77,29.92,10.0,West,11.5,-,N/A,,Scattered Clouds,280,2013-09-20 05:52:00
1:12 AM,55.4,50.0,82,29.92,10.0,West,10.4,-,N/A,,Scattered Clouds,270,2013-09-20 06:12:00
1:32 AM,53.6,50.0,88,29.92,10.0,West,8.1,-,N/A,,Clear,270,2013-09-20 06:32:00
1:52 AM,53.6,50.0,88,29.93,10.0,West,8.1,-,N/A,,Clear,270,2013-09-20 06:52:00
2:13 AM,53.6,50.0,88,29.92,10.0,West,6.9,-,N/A,,Clear,260,2013-09-20 07:13:00
2:32 AM,51.8,48.2,88,29.92,10.0,West,8.1,-,N/A,,Clear,260,2013-09-20 07:32:00
2:52 AM,51.8,48.2,88,29.92,10.0,West,9.2,-,N/A,,Clear,260,2013-09-20 07:52:00
3:12 AM,51.8,48.2,88,29.92,10.0,West,9.2,-,N/A,,Clear,260,2013-09-20 08:12:00
3:32 AM,51.8,48.2,88,29.93,10.0,West,9.2,-,N/A,,Scattered Clouds,260,2013-09-20 08:32:00
3:53 AM,50.0,48.2,94,29.92,10.0,West,8.1,-,N/A,,Scattered Clouds,260,2013-09-20 08:53:00
4:12 AM,50.0,46.4,87,29.92,10.0,West,9.2,-,N/A,,Scattered Clouds,260,2013-09-20 09:12:00
4:32 AM,50.0,46.4,87,29.92,10.0,West,9.2,-,N/A,,Scattered Clouds,270,2013-09-20 09:32:00
4:53 AM,50.0,46.4,87,29.91,10.0,West,9.2,-,N/A,,Scattered Clouds,260,2013-09-20 09:53:00
5:12 AM,50.0,48.2,94,29.91,10.0,West,10.4,-,N/A,,Mostly Cloudy,270,2013-09-20 10:12:00
5:32 AM,51.8,48.2,88,29.91,10.0,West,10.4,-,N/A,,Overcast,270,2013-09-20 10:32:00
5:53 AM,51.8,48.2,88,29.91,10.0,West,13.8,-,N/A,,Overcast,270,2013-09-20 10:53:00
6:12 AM,53.6,48.2,82,29.91,10.0,West,12.7,18.4,N/A,,Overcast,260,2013-09-20 11:12:00
6:32 AM,53.6,48.2,82,29.92,10.0,West,12.7,-,N/A,,Overcast,270,2013-09-20 11:32:00
6:52 AM,53.6,48.2,82,29.92,7.0,West,13.8,-,N/A,,Overcast,270,2013-09-20 11:52:00
7:13 AM,53.6,50.0,88,29.93,2.5,West,13.8,18.4,N/A,,Drizzle,270,2013-09-20 12:13:00
7:32 AM,51.8,50.0,94,29.94,4.0,West,12.7,-,N/A,,Drizzle,280,2013-09-20 12:32:00
7:53 AM,53.6,51.8,94,29.94,7.0,West,11.5,16.1,N/A,,Overcast,280,2013-09-20 12:53:00
8:12 AM,53.6,51.8,94,29.94,7.0,West,10.4,-,N/A,,Overcast,280,2013-09-20 13:12:00
8:32 AM,53.6,51.8,94,29.94,1.2,WNW,11.5,16.1,N/A,Rain,Rain,290,2013-09-20 13:32:00
8:53 AM,53.6,51.8,94,29.95,4.0,WNW,13.8,20.7,N/A,,Light Drizzle,290,2013-09-20 13:53:00
9:12 AM,53.6,51.8,94,29.95,1.8,WNW,15.0,-,N/A,Rain,Rain,290,2013-09-20 14:12:00
9:32 AM,53.6,51.8,94,29.96,4.0,WNW,17.3,-,N/A,,Light Drizzle,290,2013-09-20 14:32:00
9:53 AM,55.4,51.8,88,29.96,10.0,WNW,17.3,-,N/A,,Overcast,290,2013-09-20 14:53:00
10:12 AM,55.4,51.8,88,29.97,10.0,WNW,13.8,18.4,N/A,,Overcast,300,2013-09-20 15:12:00
10:32 AM,55.4,50.0,82,29.97,10.0,WNW,11.5,21.9,N/A,,Overcast,290,2013-09-20 15:32:00
10:53 AM,55.4,50.0,82,29.98,10.0,West,13.8,20.7,N/A,,Overcast,280,2013-09-20 15:53:00
11:12 AM,55.4,50.0,82,29.98,10.0,WNW,17.3,20.7,N/A,,Overcast,290,2013-09-20 16:12:00
11:32 AM,57.2,50.0,77,29.99,10.0,WNW,15.0,23.0,N/A,,Overcast,290,2013-09-20 16:32:00
11:53 AM,55.4,48.2,77,29.99,10.0,WNW,15.0,-,N/A,,Overcast,290,2013-09-20 16:53:00
12:12 PM,55.4,48.2,77,29.98,10.0,West,17.3,21.9,N/A,,Overcast,280,2013-09-20 17:12:00
12:32 PM,55.4,48.2,77,29.98,10.0,WNW,12.7,18.4,N/A,,Overcast,300,2013-09-20 17:32:00
12:53 PM,57.2,48.2,72,29.98,10.0,WNW,13.8,19.6,N/A,,Overcast,300,2013-09-20 17:53:00
1:12 PM,57.2,48.2,72,29.97,10.0,West,16.1,20.7,N/A,,Overcast,280,2013-09-20 18:12:00
1:32 PM,59.0,48.2,67,29.97,10.0,West,16.1,-,N/A,,Overcast,270,2013-09-20 18:32:00
1:52 PM,57.2,48.2,72,29.96,10.0,WNW,12.7,-,N/A,,Overcast,300,2013-09-20 18:52:00
2:12 PM,57.2,48.2,72,29.96,10.0,WNW,10.4,-,N/A,,Overcast,300,2013-09-20 19:12:00
2:33 PM,60.8,46.4,59,29.96,10.0,WNW,17.3,25.3,N/A,,Overcast,290,2013-09-20 19:33:00
2:52 PM,60.8,46.4,59,29.96,10.0,West,16.1,21.9,N/A,,Overcast,280,2013-09-20 19:52:00
3:12 PM,59.0,46.4,63,29.96,10.0,WNW,18.4,23.0,N/A,,Overcast,290,2013-09-20 20:12:00
3:32 PM,57.2,44.6,63,29.96,10.0,West,17.3,21.9,N/A,,Overcast,280,2013-09-20 20:32:00
3:52 PM,57.2,44.6,63,29.96,10.0,West,13.8,-,N/A,,Overcast,270,2013-09-20 20:52:00
4:12 PM,59.0,44.6,59,29.96,10.0,WNW,15.0,-,N/A,,Mostly Cloudy,290,2013-09-20 21:12:00
4:32 PM,57.2,42.8,59,29.96,10.0,West,15.0,-,N/A,,Mostly Cloudy,270,2013-09-20 21:32:00
4:52 PM,57.2,42.8,59,29.97,10.0,West,15.0,20.7,N/A,,Overcast,280,2013-09-20 21:52:00
5:12 PM,57.2,42.8,59,29.97,10.0,West,15.0,-,N/A,,Overcast,280,2013-09-20 22:12:00
5:32 PM,57.2,42.8,59,29.97,10.0,WNW,15.0,21.9,N/A,,Overcast,290,2013-09-20 22:32:00
5:52 PM,57.2,42.8,59,29.97,10.0,WNW,11.5,-,N/A,,Overcast,290,2013-09-20 22:52:00
6:12 PM,57.2,42.8,59,29.97,10.0,NW,8.1,-,N/A,,Overcast,310,2013-09-20 23:12:00
6:32 PM,57.2,42.8,59,29.96,10.0,NW,9.2,-,N/A,,Scattered Clouds,310,2013-09-20 23:32:00
6:52 PM,55.4,42.8,63,29.96,10.0,NW,4.6,-,N/A,,Clear,310,2013-09-20 23:52:00
7:12 PM,53.6,44.6,72,29.96,10.0,WNW,4.6,-,N/A,,Clear,290,2013-09-21 00:12:00
7:33 PM,51.8,44.6,76,29.96,10.0,Calm,Calm,-,N/A,,Clear,0,2013-09-21 00:33:00
7:52 PM,50.0,44.6,82,29.97,10.0,WSW,3.5,-,N/A,,Clear,250,2013-09-21 00:52:00
8:12 PM,48.2,44.6,87,29.97,10.0,WSW,3.5,-,N/A,,Clear,250,2013-09-21 01:12:00
8:33 PM,46.4,42.8,87,29.98,10.0,West,3.5,-,N/A,,Clear,270,2013-09-21 01:33:00
8:52 PM,48.2,44.6,87,29.98,10.0,Calm,Calm,-,N/A,,Clear,0,2013-09-21 01:52:00
9:12 PM,46.4,42.8,87,29.98,10.0,Calm,Calm,-,N/A,,Clear,0,2013-09-21 02:12:00
9:33 PM,44.6,42.8,93,29.98,10.0,Calm,Calm,-,N/A,,Clear,0,2013-09-21 02:33:00
9:52 PM,46.4,42.8,87,29.99,10.0,WSW,3.5,-,N/A,,Clear,250,2013-09-21 02:52:00
10:12 PM,44.6,42.8,93,29.99,10.0,Calm,Calm,-,N/A,,Clear,0,2013-09-21 03:12:00
10:33 PM,44.6,42.8,93,30.00,10.0,West,3.5,-,N/A,,Clear,260,2013-09-21 03:33:00
10:52 PM,44.6,42.8,93,30.00,10.0,WSW,3.5,-,N/A,,Clear,240,2013-09-21 03:52:00
11:12 PM,44.6,42.8,93,29.99,10.0,West,3.5,-,N/A,,Clear,260,2013-09-21 04:12:00
11:33 PM,44.6,42.8,93,29.99,10.0,Calm,Calm,-,N/A,,Clear,0,2013-09-21 04:33:00
11:52 PM,42.8,41.0,93,29.99,10.0,Calm,Calm,-,N/A,,Clear,0,2013-09-21 04:52:00